Regional Weather Roundup
Issued by NWS State College, PA

Home | Current Version | Previous Version | Text Only | Print | Product List | Glossary On
Versions: 1 2 3 4 5 6 7 8 9 10 11 12 13 14 15 16 17 18 19 20 21 22 23 24 25 26 27 28 29 30 31 32 33 34 35 36 37 38 39 40 41 42 43 44 45 46 47 48 49 50
000
ASUS41 KCTP 230003
RWRCTP

REGIONAL WEATHER ROUNDUP
NATIONAL WEATHER SERVICE STATE COLLEGE PA
800 PM EDT MON SEP 22 2014

Note: "fair" indicates few or no clouds below 12,000 feet with no
significant weather and/or obstructions to visibility.

* = STATION THAT DOES NOT REPORT PRECIPITATION /E.G. RAIN...SNOW...ETC/
    THUNDER OR FOG.

PAZ002>004-007>009-013>016-020>023-029>032-230100-
WESTERN PENNSYLVANIA

CITY           SKY/WX    TMP DP  RH WIND       PRES   REMARKS
ERIE           MOCLDY    55  40  56 NW7       30.21R
MEADVILLE      MOCLDY    47  41  80 W3        30.22R
FRANKLIN*      CLOUDY    48  37  66 W7        30.23R
NEW CASTLE       N/A     51  44  77 CALM      30.24R
BEAVER COUNTY  CLOUDY    50  41  71 NW5       30.23R
BUTLER*        CLOUDY    52  41  66 NW3       30.24R
PITTSBURGH INT MOCLDY    54  42  64 N9        30.22R
PITTSBURGH     CLOUDY    55  40  56 NW7       30.21R
INDIANA*       CLOUDY    52  43  71 N5        30.25R
LATROBE        MOCLDY    54  46  76 W7        30.22R
WASHINGTON CO* CLEAR     48  43  81 NW3       30.23R
$$

PAZ004>006-010>012-017>019-024>028-033>037-041-042-045-046-049>053-230100-
CENTRAL PENNSYLVANIA

CITY           SKY/WX    TMP DP  RH WIND       PRES   REMARKS
BRADFORD       CLOUDY    47  41  80 W6        30.18R
DUBOIS         CLOUDY    49  43  80 W10       30.19R
CLEARFIELD     CLOUDY    51  41  68 NW12G18   30.19R
JOHNSTOWN      CLOUDY    49  41  74 NW8       30.19R
ALTOONA        CLOUDY    53  40  61 NW12G21   30.19R
STATE COLLEGE  CLOUDY    54  41  62 NW12      30.18R
WILLIAMSPORT   MOCLDY    55  40  56 NW7       30.13R
SELINSGROVE    MOCLDY    55  43  63 NW3       30.15R
FT INDIANTOWN  CLEAR     58  42  55 VRB2      30.13R
CAPITAL CITY   PTCLDY    58  42  55 W6        30.13R
HARRISBURG     PTCLDY    60  43  53 NW12      30.12R
YORK           PTCLDY    54  43  66 NW5       30.14R
$$

PAZ038>040-043-044-047-048-054-055-060>062-067>071-230100-
EASTERN PENNSYLVANIA

CITY           SKY/WX    TMP DP  RH WIND       PRES   REMARKS
SCRANTON       MOCLDY    54  39  57 N8        30.12R
MOUNT POCONO   CLEAR     47  38  71 NW9       30.09R
ALLENTOWN      MOCLDY    59  42  53 NW8       30.09R
QUAKERTOWN*    PTCLDY    57  43  58 NW5       30.10R
READING        PTCLDY    58  41  53 NW12      30.11R
LANCASTER      PTCLDY    57  42  57 NW7       30.12R
COATESVILLE    PTCLDY    57  45  62 NW10      30.12R
POTTSTOWN      PTCLDY    59  43  55 W5        30.11R
BLUE BELL      PTCLDY    61  45  55 CALM      30.09R
DOYLESTOWN     CLEAR     59  42  53 NW3       30.08R
WILLOW GROVE   NOT AVBL
NORTH PHILA    PTCLDY    63  41  44 NW7       30.09R
PHILADELPHIA   MOCLDY    65  44  46 NW9       30.09R
$$



USA.gov is the U.S. government's official web portal to all federal, state and local government web resources and services.